星链-30994 (STARLINK-30994 )

导读

STARLINK-30994是美国太空探索技术公司星链互联网卫星星座的一员,于2023年12月3日发射入轨,属于星链星座扩容任务的卫星。星链项目旨在构建全球覆盖的低轨卫星互联网,该卫星承担着为全球偏远地区、海洋航空等场景提供高速互联网接入服务的任务,低轨运行设计可降低通信延迟,提升网络服务体验。

基本信息
目录编号:
58483
目录名称:
STARLINK-30994
国际标识:
2023-186L
轨道中心:
EARTH
卫星名称:
星链-30994
卫星全名:
星链-30994 (STARLINK-30994 )
卫星状态:
在轨 (已飞行1013 天)
发射日期:
2023-12-03 UTC
国别 :
美国 (US)
星等 :
--
该卫星已列入 空间交会检测服务 Space Conjunction Data Service (SCDS) ,当前飞行风险评估等级: 无高风险
轨道信息
数据来源 国际轨道数据
星历时间: 2026-09-11T10:50:07+0800
14小时前
查看轨道信息
半长轴: 6814.245km
偏心率: 0.0015256
轨道倾角: 42.994°
近地点辐角 65.086°
升交点赤经 284.220°
平近点角 295.159°
近地点: 425.712km
远地点: 446.504km
周期: 93.301分钟
每日圈数: 15.433919
详细信息
固有亮度:
5
最大亮度:
0.3
卫星平台:
Starlink v2.0 mini
覆盖范围:
全球
运营商:
太空探索技术公司
运营商所在国:
美国
制造商(研发单位):
太空探索技术公司
制造商所在国:
美国
使用方式:
暂无
卫星简介
星链(Starlink)计划是由太空探索技术公司(SpaceX)提出的一个巨型低轨卫星互联网星座项目,计划在2019年至2024年间在太空搭建由约1.2万颗卫星组成的“星链”网络,其中1584颗将部署在地球上空550千米处的近地轨道,并从2020年开始工作。该卫星仍在工作。
2D轨道图
3D轨道图
轨道高度分析图
轨道倾角分析图
轨道综合分析图
查看轨道综合分析图
与全量物体交会距离演化趋势
与全量物体交会风险概率演化趋势